Regional Weather Roundup
Issued by NWS

Home | Current Version | Previous Version | Text Only | Print | Product List | Glossary On
Versions: 1 2 3 4 5 6 7 8 9 10 11 12 13 14 15 16 17 18 19 20 21 22 23 24 25 26 27 28 29 30 31 32 33 34 35 36 37 38 39 40 41 42 43 44 45 46 47 48 49 50
000
ASUS45 KBOI 270410
RWRID
WEATHER ROUNDUP FOR IDAHO
NATIONAL WEATHER SERVICE BOISE ID
900 PM MST THU FEB 26 2015

NOTE: "FAIR" INDICATES FEW OR NO CLOUDS BELOW 12000 FEET
WITH NO SIGNIFICANT WEATHER AND/OR OBSTRUCTIONS TO VISIBILITY

IDZ012-014-270500-
SOUTHWEST IDAHO


CITY           SKY/WX    TMP DP  RH WIND       PRES   REMARKS
BOISE          CLOUDY    42  34  73 CALM      29.92F
CALDWELL       CLOUDY    43  28  56 CALM      29.94F
MOUNTAIN HOME  CLOUDY    39  32  75 NW8       29.91F WCI  34
$$

IDZ016-017-270500-
SOUTHCENTRAL IDAHO


CITY           SKY/WX    TMP DP  RH WIND       PRES   REMARKS
BURLEY         CLOUDY    33  31  92 S10       29.90F WCI  25
JEROME         MOCLDY    32  29  88 SE7       29.90F WCI  26
TWIN FALLS     PTCLDY    35  28  75 S12       29.91F WCI  27
$$

IDZ019>023-270500-
SOUTHEAST IDAHO


CITY           SKY/WX    TMP DP  RH WIND       PRES   REMARKS
IDAHO FALLS    CLOUDY    30  11  45 NE3       29.91F
POCATELLO      CLOUDY    34  23  64 E5        29.92S WCI  30
REXBURG        CLOUDY    28  11  48 NE6       29.91F WCI  22
$$

IDZ006-010-011-018-031-032-270500-
CENTRAL IDAHO MOUNTAINS


CITY           SKY/WX    TMP DP  RH WIND       PRES   REMARKS
MCCALL         CLOUDY    30  27  88 N3        29.87F
HAILEY         MOCLDY    30  30 100 CALM      29.91  FOG
STANLEY          N/A     27  18  69 CALM      29.86S
SALMON         MOCLDY    30  19  64 N3        29.90F
CHALLIS        CLOUDY    32  19  58 N7        29.87F WCI  26
$$

IDZ002-004-006-007-026-270500-
NORTHERN IDAHO


CITY           SKY/WX    TMP DP  RH WIND       PRES   REMARKS
LEWISTON       CLOUDY    43  38  82 CALM      29.95F
LOWELL           N/A     38  33  82 NW3       29.98F
COEUR D`ALENE  CLOUDY    36  27  69 NE6       29.94F WCI  31
MULLAN PASS    CLOUDY    23  17  78 SE5       29.85F WCI  17
$$


USA.gov is the U.S. government's official web portal to all federal, state and local government web resources and services.